GW4902 Weather Reports


time (UTC)temp
C
wind
direction
speed
KPH
gust
KPH
rain 1hr
cm
rain 24hr
cm
rain mn
cm
humidity
%
barometer
mb
20260906232541 14 147 4.8 11.3 0.00 0.20 0.05 86 1016.6
20260906232039 14 117 3.2 11.3 0.00 0.20 0.05 85 1016.6
20260906231600 14 109 1.6 9.7 0.00 0.20 0.05 85 1016.6
20260906231039 14 0 3.2 11.3 0.00 0.20 0.05 86 1016.7
20260906230540 13 142 3.2 14.5 0.00 0.20 0.05 86 1016.7
20260906230106 13 123 4.8 14.5 0.00 0.20 0.05 87 1016.8
20260906225539 13 101 6.4 14.5 0.00 0.20 0.05 87 1016.8
20260906225040 13 118 3.2 12.9 0.00 0.20 0.05 88 1016.9
20260906224612 13 106 3.2 11.3 0.00 0.20 0.05 89 1016.8
20260906224039 13 82 3.2 11.3 0.00 0.20 0.05 89 1017.0
20260906223540 13 130 4.8 12.9 0.00 0.20 0.05 89 1016.8
20260906223101 13 112 4.8 12.9 0.00 0.20 0.05 89 1017.0
20260906222539 13 114 4.8 14.5 0.00 0.20 0.05 90 1017.0
20260906222041 13 123 6.4 14.5 0.00 0.20 0.05 91 1017.1
20260906221559 13 114 4.8 12.9 0.00 0.20 0.05 91 1017.0
20260906221039 13 96 3.2 12.9 0.00 0.20 0.05 92 1017.1
20260906220540 13 114 4.8 12.9 0.00 0.20 0.05 92 1017.1
20260906220135 13 73 4.8 12.9 0.00 0.20 0.05 93 1017.2
20260906215540 13 95 4.8 12.9 0.00 0.23 0.05 93 1017.1
20260906215040 13 101 1.6 9.7 0.00 0.23 0.05 94 1017.2
20260906214558 13 99 3.2 14.5 0.00 0.23 0.05 94 1017.1
20260906214040 13 76 6.4 14.5 0.00 0.23 0.05 94 1017.2
20260906213538 13 84 4.8 14.5 0.00 0.23 0.05 94 1017.1
20260906213103 13 84 4.8 14.5 0.00 0.23 0.05 94 1017.1
20260906212539 13 124 4.8 14.5 0.00 0.23 0.05 95 1017.1
20260906212042 12 98 3.2 11.3 0.00 0.23 0.05 95 1017.1
20260906211605 12 76 1.6 11.3 0.00 0.23 0.05 95 1017.1
20260906211036 12 103 1.6 9.7 0.00 0.23 0.05 95 1017.2
20260906210540 12 88 4.8 9.7 0.00 0.23 0.05 95 1017.2
20260906210112 12 90 4.8 8.0 0.00 0.23 0.05 95 1017.3
20260906205540 12 109 0.0 9.7 0.00 0.23 0.05 96 1017.3
20260906205042 12 138 1.6 11.3 0.00 0.23 0.05 95 1017.4
20260906204559 12 91 3.2 11.3 0.00 0.23 0.05 95 1017.3
20260906204040 12 92 3.2 9.7 0.00 0.23 0.05 95 1017.3
20260906203541 12 142 1.6 9.7 0.00 0.23 0.05 95 1017.4
20260906203056 12 134 3.2 9.7 0.00 0.23 0.05 95 1017.4
20260906202540 12 108 3.2 9.7 0.00 0.23 0.05 95 1017.5
20260906202040 12 92 1.6 11.3 0.00 0.23 0.05 96 1017.5
20260906201554 12 136 4.8 14.5 0.00 0.23 0.05 95 1017.5
20260906201037 11 0 3.2 14.5 0.00 0.23 0.05 95 1017.6
20260906200540 11 100 4.8 9.7 0.00 0.23 0.05 96 1017.6
20260906200058 11 68 4.8 14.5 0.00 0.23 0.05 96 1017.6
20260906195539 11 108 3.2 14.5 0.00 0.23 0.05 96 1017.7
20260906195037 11 109 4.8 12.9 0.00 0.23 0.05 95 1017.6
20260906194618 11 80 6.4 12.9 0.00 0.23 0.05 95 1017.7
20260906194039 11 102 4.8 12.9 0.00 0.23 0.05 95 1017.8
20260906193537 11 51 6.4 12.9 0.00 0.23 0.05 95 1017.7
20260906193105 11 86 4.8 17.7 0.00 0.23 0.05 96 1017.7
20260906192540 11 121 8.0 17.7 0.00 0.23 0.05 95 1017.7
20260906192039 11 92 6.4 16.1 0.00 0.23 0.05 95 1017.8
20260906191557 11 78 6.4 16.1 0.00 0.23 0.05 95 1017.8
20260906191040 11 100 8.0 16.1 0.00 0.23 0.05 95 1017.8
20260906190540 11 27 8.0 14.5 0.00 0.23 0.05 95 1018.0
20260906185540 11 101 8.0 14.5 0.00 0.23 0.05 96 1017.9
20260906185043 11 79 3.2 14.5 0.00 0.23 0.05 96 1018.0
20260906184609 11 67 4.8 14.5 0.00 0.23 0.05 95 1018.0
20260906184043 10 78 3.2 14.5 0.00 0.23 0.05 96 1018.1
20260906183539 10 86 6.4 14.5 0.00 0.23 0.05 95 1018.0
20260906183105 10 85 4.8 14.5 0.03 0.23 0.05 95 1018.1
20260906182539 10 71 4.8 14.5 0.03 0.23 0.05 95 1018.0
20260906182038 10 105 6.4 14.5 0.03 0.23 0.05 95 1018.1
20260906181558 10 42 6.4 14.5 0.03 0.23 0.05 95 1018.0
20260906181037 10 68 6.4 12.9 0.03 0.23 0.05 96 1018.0
20260906180536 10 57 4.8 9.7 0.03 0.23 0.05 95 1018.2
20260906175536 10 68 4.8 11.3 0.03 0.23 0.05 95 1018.2
20260906175039 10 66 4.8 11.3 0.03 0.23 0.05 95 1018.3
20260906174557 10 98 4.8 9.7 0.03 0.23 0.05 95 1018.4
20260906174036 10 96 3.2 9.7 0.03 0.23 0.05 95 1018.5
20260906173543 10 88 4.8 9.7 0.03 0.23 0.05 95 1018.5
20260906173057 10 0 3.2 11.3 0.00 0.20 0.03 95 1018.6
20260906172538 10 103 4.8 11.3 0.00 0.20 0.03 95 1018.6
20260906172039 10 93 3.2 9.7 0.00 0.20 0.03 95 1018.6
20260906171607 10 73 3.2 8.0 0.00 0.20 0.03 95 1018.5
20260906171037 10 76 4.8 11.3 0.00 0.20 0.03 95 1018.5
20260906170536 10 57 1.6 11.3 0.00 0.20 0.03 95 1018.6
20260906170058 10 57 4.8 11.3 0.00 0.20 0.03 95 1018.7
20260906165537 10 49 3.2 11.3 0.00 0.20 0.03 95 1018.8
20260906165036 10 77 4.8 11.3 0.00 0.20 0.03 95 1018.9
20260906164602 10 105 3.2 9.7 0.00 0.20 0.03 95 1019.0
20260906164036 10 76 4.8 9.7 0.00 0.20 0.03 95 1019.0
20260906163536 10 43 3.2 11.3 0.00 0.20 0.03 95 1019.1
20260906163059 10 90 4.8 11.3 0.00 0.20 0.03 95 1019.1
20260906162537 10 77 1.6 8.0 0.00 0.20 0.03 95 1019.0
20260906162035 10 67 3.2 8.0 0.00 0.20 0.03 95 1019.1
20260906161603 10 84 0.0 4.8 0.00 0.20 0.03 95 1019.2
20260906161036 10 84 1.6 4.8 0.00 0.20 0.03 95 1019.1
20260906160536 10 84 0.0 6.4 0.00 0.20 0.03 95 1019.1
20260906160101 10 84 1.6 6.4 0.00 0.20 0.03 95 1019.0
20260906155539 10 84 1.6 6.4 0.00 0.20 0.03 95 1018.9
20260906155035 9 84 0.0 3.2 0.00 0.20 0.03 95 1019.0
20260906154604 9 0 0.0 4.8 0.00 0.20 0.03 95 1019.0
20260906154037 9 0 1.6 4.8 0.00 0.20 0.03 95 1019.1
20260906153536 9 84 1.6 4.8 0.00 0.20 0.03 95 1019.1
20260906153101 9 213 0.0 3.2 0.00 0.20 0.03 95 1019.1
20260906152536 9 213 0.0 1.6 0.00 0.20 0.03 95 1018.9
20260906152036 9 0 0.0 1.6 0.00 0.20 0.03 95 1019.0
20260906151558 9 0 0.0 1.6 0.00 0.20 0.03 95 1018.9
20260906151040 9 0 0.0 1.6 0.00 0.20 0.03 95 1019.1
20260906150540 9 0 0.0 0.0 0.00 0.20 0.03 95 1018.9
20260906150105 9 0 0.0 1.6 0.00 0.20 0.03 95 1018.9
20260906145540 9 0 0.0 1.6 0.00 0.20 0.03 95 1019.1
20260906145040 9 213 0.0 1.6 0.00 0.20 0.03 95 1019.0
20260906144620 9 0 0.0 1.6 0.00 0.20 0.03 95 1018.9
20260906144039 9 0 0.0 1.6 0.00 0.20 0.03 95 1018.8
20260906143540 9 0 0.0 1.6 0.00 0.20 0.03 95 1019.0
20260906143102 8 0 0.0 1.6 0.00 0.20 0.03 95 1018.8
20260906142540 8 0 0.0 0.0 0.00 0.20 0.03 95 1018.9
20260906142043 8 0 0.0 0.0 0.00 0.20 0.03 95 1018.9
20260906141632 8 0 0.0 0.0 0.00 0.20 0.03 95 1019.0
20260906141044 8 0 0.0 0.0 0.00 0.20 0.03 95 1019.1
20260906140540 8 0 0.0 1.6 0.00 0.20 0.03 95 1019.1
20260906140110 8 0 0.0 1.6 0.00 0.20 0.03 95 1019.1
20260906135540 8 213 0.0 3.2 0.00 0.20 0.03 95 1019.1
20260906135040 8 0 0.0 3.2 0.00 0.20 0.03 95 1019.3
20260906134606 8 213 0.0 3.2 0.03 0.20 0.03 95 1019.2
20260906134040 8 0 0.0 3.2 0.03 0.20 0.03 95 1019.2
20260906133540 8 0 0.0 3.2 0.03 0.20 0.03 95 1019.2
20260906133101 8 213 1.6 3.2 0.03 0.20 0.03 95 1019.3
20260906132540 8 0 0.0 1.6 0.03 0.20 0.03 95 1019.3
20260906132044 8 0 0.0 1.6 0.03 0.20 0.03 95 1019.3
20260906131557 8 0 0.0 1.6 0.03 0.20 0.03 95 1019.1
20260906131040 8 213 0.0 1.6 0.03 0.20 0.03 95 1019.2
20260906130540 8 0 0.0 0.0 0.03 0.20 0.03 95 1019.1
20260906130056 8 0 0.0 1.6 0.03 0.20 0.03 95 1019.0
20260906125543 8 0 0.0 1.6 0.03 0.20 0.03 95 1019.2
20260906125042 8 0 0.0 1.6 0.00 0.18 0.00 95 1019.4
20260906124559 8 0 0.0 1.6 0.00 0.18 0.00 95 1019.5
20260906124043 8 0 0.0 3.2 0.00 0.18 0.00 94 1019.6
20260906123540 8 0 0.0 3.2 0.00 0.18 0.00 94 1019.6
20260906123105 8 0 0.0 3.2 0.00 0.18 0.00 94 1019.7
20260906122540 8 213 0.0 3.2 0.00 0.18 0.00 94 1019.6
20260906122040 8 0 0.0 3.2 0.00 0.18 0.00 94 1019.8
20260906121559 8 213 0.0 3.2 0.00 0.18 0.00 94 1019.7
20260906121037 8 0 0.0 3.2 0.00 0.18 0.00 95 1019.8
20260906120537 8 0 0.0 4.8 0.00 0.18 0.00 94 1020.0
20260906120104 8 213 1.6 6.4 0.00 0.18 0.00 95 1020.2
20260906115540 8 213 1.6 6.4 0.00 0.18 0.00 94 1020.4
20260906115040 8 0 0.0 3.2 0.00 0.18 0.00 94 1020.6
20260906114558 8 0 0.0 3.2 0.00 0.18 0.00 94 1020.6
20260906114040 8 213 0.0 3.2 0.00 0.18 0.00 94 1020.6
20260906113540 8 213 0.0 3.2 0.00 0.18 0.00 94 1020.4
20260906113104 8 213 0.0 1.6 0.00 0.18 0.00 94 1020.5
20260906112539 8 0 0.0 3.2 0.00 0.18 0.00 94 1020.6
20260906112040 8 0 0.0 4.8 0.00 0.18 0.00 94 1020.7
20260906111556 8 213 1.6 4.8 0.00 0.18 0.00 94 1020.7
20260906111039 8 188 1.6 4.8 0.00 0.18 0.00 94 1020.7
20260906110540 8 0 0.0 3.2 0.00 0.18 0.00 94 1020.8
20260906110057 8 0 0.0 4.8 0.00 0.18 0.00 94 1020.7
20260906105540 8 0 0.0 6.4 0.00 0.18 0.00 94 1020.7
20260906105039 8 224 3.2 6.4 0.00 0.18 0.00 94 1020.7
20260906104611 8 0 0.0 3.2 0.00 0.18 0.00 94 1020.5
20260906104040 8 0 0.0 3.2 0.00 0.18 0.00 94 1020.6
20260906103539 8 40 0.0 3.2 0.00 0.18 0.00 94 1020.6
20260906103057 8 0 0.0 3.2 0.00 0.18 0.00 94 1020.2
20260906102543 8 0 0.0 3.2 0.00 0.18 0.00 94 1020.2
20260906102040 8 40 0.0 3.2 0.00 0.18 0.00 94 1020.3
20260906101600 8 40 0.0 3.2 0.00 0.18 0.00 94 1020.4
20260906101039 8 0 0.0 4.8 0.00 0.18 0.00 94 1020.4
20260906100536 8 40 1.6 6.4 0.00 0.18 0.00 94 1020.3
20260906100056 8 40 1.6 6.4 0.00 0.18 0.00 94 1020.4
20260906095542 8 40 1.6 6.4 0.00 0.18 0.00 94 1020.4
20260906095040 8 56 1.6 4.8 0.00 0.18 0.00 94 1020.5
20260906094640 8 56 0.0 4.8 0.00 0.18 0.00 94 1020.9
20260906094040 8 56 1.6 4.8 0.00 0.18 0.00 94 1021.0
20260906093540 8 56 0.0 6.4 0.00 0.18 0.00 94 1021.1
20260906093108 8 56 1.6 6.4 0.00 0.18 0.00 94 1021.1
20260906092540 8 20 1.6 6.4 0.00 0.18 0.00 94 1021.0
20260906092040 8 61 3.2 6.4 0.00 0.18 0.00 94 1021.0
20260906091555 8 0 0.0 1.6 0.00 0.18 0.00 94 1021.0
20260906091042 8 0 0.0 1.6 0.00 0.18 0.00 94 1021.1
20260906090540 8 0 0.0 1.6 0.00 0.18 0.00 93 1021.1
20260906090105 8 0 0.0 1.6 0.00 0.18 0.00 93 1021.1
20260906085540 8 0 0.0 1.6 0.00 0.18 0.00 93 1021.2
20260906085040 8 0 0.0 1.6 0.00 0.18 0.00 93 1021.4
20260906084601 8 0 0.0 1.6 0.00 0.18 0.00 94 1021.4
20260906084039 8 0 0.0 3.2 0.00 0.18 0.00 94 1021.5
20260906083540 8 98 0.0 3.2 0.00 0.18 0.00 94 1021.7
20260906083057 8 0 0.0 4.8 0.00 0.18 0.00 94 1021.9
20260906082540 8 0 0.0 4.8 0.00 0.18 0.00 93 1021.9
20260906082040 8 0 1.6 4.8 0.00 0.18 0.00 93 1022.0
20260906081600 8 290 1.6 3.2 0.00 0.18 0.00 93 1022.0
20260906081037 8 0 0.0 4.8 0.00 0.18 0.00 94 1021.7
20260906080540 8 0 0.0 4.8 0.00 0.18 0.00 94 1021.7
20260906080058 8 0 0.0 3.2 0.00 0.18 0.00 93 1021.6
20260906075539 8 215 0.0 3.2 0.00 0.18 0.00 93 1021.5
20260906075036 8 215 0.0 3.2 0.00 0.18 0.00 93 1021.6
20260906074557 8 0 0.0 1.6 0.00 0.18 0.00 93 1021.8
20260906074041 9 0 0.0 0.0 0.00 0.18 0.00 93 1021.8
20260906073540 9 0 0.0 1.6 0.00 0.18 0.00 93 1021.8
20260906073058 9 0 0.0 1.6 0.00 0.18 0.00 94 1021.8
20260906072540 9 0 0.0 3.2 0.00 0.18 0.00 94 1021.9
20260906072036 9 0 0.0 3.2 0.00 0.18 0.00 94 1022.0
20260906071558 9 0 0.0 3.2 0.00 0.18 0.00 94 1022.0
20260906071101 9 0 0.0 3.2 0.00 0.18 0.00 94 1022.0
20260906070537 9 0 0.0 3.2 0.00 0.18 0.00 94 1022.0
20260906070100 9 0 0.0 3.2 0.00 0.18 0.00 94 1022.1
20260906065539 9 0 0.0 3.2 0.00 0.18 0.00 94 1022.2
20260906065038 9 0 0.0 3.2 0.00 0.18 0.00 94 1022.1
20260906064601 9 0 0.0 3.2 0.00 0.18 0.00 94 1022.0
20260906064040 9 215 0.0 3.2 0.00 0.18 0.00 94 1022.1
20260906063537 9 0 0.0 3.2 0.00 0.18 0.00 94 1022.0
20260906063100 9 0 0.0 3.2 0.00 0.18 0.00 94 1022.1
20260906062539 9 215 0.0 3.2 0.00 0.18 0.00 93 1022.1
20260906062040 9 0 0.0 3.2 0.00 0.18 0.00 93 1022.0
20260906061602 9 0 0.0 1.6 0.00 0.18 0.00 93 1022.1
20260906061037 9 0 0.0 3.2 0.00 0.18 0.00 93 1022.1
20260906060540 9 0 0.0 3.2 0.00 0.18 0.00 93 1022.0
20260906060100 9 0 0.0 3.2 0.00 0.18 0.00 93 1022.1
20260906055539 9 0 0.0 3.2 0.00 0.18 0.18 93 1022.2
20260906055040 9 0 0.0 3.2 0.00 0.18 0.18 93 1022.1
20260906054557 9 0 0.0 4.8 0.00 0.18 0.18 93 1022.1
20260906054040 9 0 0.0 4.8 0.00 0.18 0.18 93 1022.1
20260906053536 9 215 3.2 6.4 0.00 0.18 0.18 93 1022.2
20260906053104 9 215 3.2 6.4 0.00 0.18 0.18 93 1022.2
20260906052538 9 254 0.0 3.2 0.00 0.18 0.18 93 1022.1
20260906052038 9 0 0.0 3.2 0.00 0.18 0.18 93 1022.1
20260906051556 9 0 0.0 4.8 0.00 0.18 0.18 93 1022.1
20260906051042 9 0 0.0 4.8 0.00 0.18 0.18 93 1022.1
20260906050537 9 16 0.0 3.2 0.00 0.18 0.18 93 1022.1
20260906050114 9 0 0.0 1.6 0.00 0.18 0.18 93 1022.1
20260906045538 9 0 0.0 3.2 0.00 0.18 0.18 93 1022.1
20260906045037 9 0 0.0 3.2 0.00 0.18 0.18 93 1022.2
20260906044600 9 0 0.0 3.2 0.00 0.18 0.18 93 1022.2
20260906044040 9 0 0.0 3.2 0.00 0.18 0.18 93 1022.1
20260906043540 9 16 0.0 3.2 0.00 0.18 0.18 93 1022.2
20260906043058 9 16 0.0 3.2 0.00 0.18 0.18 93 1022.1
20260906042538 9 0 1.6 3.2 0.00 0.18 0.18 93 1022.1
20260906042038 9 0 0.0 1.6 0.00 0.18 0.18 93 1022.1
20260906041558 9 0 0.0 1.6 0.00 0.18 0.18 93 1022.0
20260906041040 9 0 0.0 4.8 0.00 0.18 0.18 93 1022.0
20260906040540 9 0 0.0 4.8 0.00 0.18 0.18 93 1021.9
20260906040132 9 0 0.0 4.8 0.00 0.18 0.18 93 1021.9
20260906035541 9 0 0.0 3.2 0.00 0.18 0.18 93 1021.8
20260906035039 9 0 0.0 4.8 0.00 0.18 0.18 93 1021.8
20260906034603 9 0 0.0 4.8 0.00 0.18 0.18 93 1021.7
20260906034037 9 325 0.0 4.8 0.03 0.18 0.18 93 1021.7
20260906033539 9 346 0.0 6.4 0.03 0.18 0.18 93 1021.7
20260906033104 9 322 0.0 6.4 0.03 0.18 0.18 93 1021.7
20260906032539 9 322 0.0 4.8 0.03 0.18 0.18 93 1021.6
20260906032038 9 288 1.6 4.8 0.03 0.18 0.18 93 1021.6
20260906031602 9 0 0.0 4.8 0.03 0.18 0.18 93 1021.6
20260906031038 9 0 1.6 6.4 0.03 0.18 0.18 93 1021.5
20260906030540 9 0 0.0 6.4 0.03 0.18 0.18 93 1021.7
20260906030057 9 275 1.6 6.4 0.03 0.18 0.18 93 1021.8
20260906025538 9 288 1.6 6.4 0.03 0.18 0.18 93 1021.7
20260906025039 9 0 1.6 6.4 0.03 0.18 0.18 92 1021.6
20260906024602 9 284 0.0 6.4 0.05 0.18 0.18 92 1021.5
20260906024043 9 320 0.0 6.4 0.03 0.15 0.15 92 1021.5
20260906023540 9 0 1.6 6.4 0.03 0.15 0.15 92 1021.6
20260906023102 9 263 0.0 4.8 0.03 0.15 0.15 92 1021.5
20260906022540 9 0 0.0 4.8 0.03 0.15 0.15 92 1021.5
20260906022041 9 287 0.0 4.8 0.03 0.15 0.15 92 1021.5
20260906021605 9 0 0.0 9.7 0.03 0.15 0.15 92 1021.5
20260906021037 9 284 1.6 9.7 0.03 0.15 0.15 92 1021.6
20260906020540 9 303 1.6 9.7 0.05 0.15 0.15 92 1021.6
20260906020107 9 0 0.0 4.8 0.05 0.15 0.15 92 1021.6
20260906015537 9 319 0.0 4.8 0.05 0.15 0.15 92 1021.6
20260906015039 9 317 0.0 4.8 0.05 0.15 0.15 92 1021.6
20260906014601 9 336 0.0 4.8 0.03 0.13 0.13 92 1021.5
20260906014037 9 0 0.0 4.8 0.05 0.13 0.13 92 1021.4
20260906013538 9 0 1.6 4.8 0.08 0.13 0.13 92 1021.4
20260906013101 9 288 0.0 4.8 0.08 0.13 0.13 92 1021.5
20260906012537 9 274 0.0 4.8 0.10 0.13 0.13 92 1021.3
20260906012038 9 317 1.6 4.8 0.10 0.13 0.13 92 1021.4
20260906011602 9 317 0.0 6.4 0.10 0.13 0.13 91 1021.2
20260906011042 9 0 1.6 6.4 0.10 0.13 0.13 91 1021.2
20260906010537 10 0 1.6 4.8 0.08 0.10 0.10 91 1021.3
20260906010105 10 0 0.0 3.2 0.08 0.10 0.10 91 1021.3
20260906005540 10 0 0.0 3.2 0.08 0.10 0.10 91 1021.2
20260906005040 10 0 0.0 3.2 0.08 0.10 0.10 91 1021.3
20260906004603 10 0 0.0 3.2 0.08 0.10 0.10 91 1021.3
20260906004038 9 0 0.0 1.6 0.05 0.08 0.08 91 1021.4
20260906003540 9 0 0.0 1.6 0.03 0.05 0.05 91 1021.3
20260906003100 9 0 0.0 4.8 0.03 0.05 0.05 91 1021.3
20260906002539 9 0 0.0 4.8 0.00 0.03 0.03 91 1021.3
20260906002037 9 0 0.0 4.8 0.00 0.03 0.03 91 1021.2
20260906001607 9 0 0.0 4.8 0.00 0.03 0.03 91 1021.1
20260906001037 9 0 0.0 4.8 0.00 0.03 0.03 90 1021.2
20260906000537 9 0 0.0 4.8 0.00 0.03 0.03 90 1021.2
20260905235540 9 340 1.6 8.0 0.00 0.03 0.03 90 1021.2
20260905235040 9 343 0.0 4.8 0.00 0.03 0.03 90 1021.2
20260905234601 9 338 0.0 4.8 0.00 0.03 0.03 90 1021.1
20260905234037 9 338 0.0 4.8 0.00 0.03 0.03 90 1021.2
20260905233539 9 17 0.0 6.4 0.00 0.03 0.03 90 1021.1
20260905233109 9 330 1.6 6.4 0.00 0.03 0.03 90 1021.1